FW6257 Weather Reports


time (UTC)temp
C
wind
direction
speed
KPH
gust
KPH
rain 1hr
cm
rain 24hr
cm
rain mn
cm
humidity
%
barometer
mb
20260906101042 19 99 3.2 12.9 0.00 0.00 0.00 54 987.2
20260906100536 19 108 4.8 11.3 0.00 0.00 0.00 54 987.1
20260906095524 19 107 4.8 14.5 0.00 0.00 0.00 54 987.1
20260906095018 19 92 3.2 9.7 0.00 0.00 0.00 54 987.0
20260906093459 19 86 3.2 9.7 0.00 0.00 0.00 54 987.1
20260906092953 19 85 3.2 9.7 0.00 0.00 0.00 54 987.1
20260906092447 19 97 3.2 6.4 0.00 0.00 0.00 55 987.1
20260906091942 19 100 1.6 6.4 0.00 0.00 0.00 55 987.1
20260906091437 19 100 1.6 6.4 0.00 0.00 0.00 55 987.1
20260906090423 20 101 3.2 6.4 0.00 0.00 0.00 55 987.2
20260906085918 20 101 3.2 9.7 0.00 0.00 0.00 55 987.3
20260906085412 20 107 4.8 9.7 0.00 0.00 0.00 55 987.3
20260906084359 20 91 4.8 14.5 0.00 0.00 0.00 55 987.1
20260906083859 20 96 4.8 14.5 0.00 0.00 0.00 55 987.0
20260906083400 20 95 3.2 11.3 0.00 0.00 0.00 55 987.0
20260906082901 20 111 3.2 9.7 0.00 0.00 0.00 55 987.1
20260906082400 20 138 3.2 9.7 0.00 0.00 0.00 55 987.1
20260906081900 20 101 4.8 9.7 0.00 0.00 0.00 56 987.1
20260906081358 20 107 4.8 12.9 0.00 0.00 0.00 56 987.1
20260906080857 20 78 4.8 12.9 0.00 0.00 0.00 56 987.0
20260906080355 20 78 4.8 12.9 0.00 0.00 0.00 56 987.0
20260906075855 20 98 3.2 9.7 0.00 0.00 0.00 56 987.2
20260906075355 20 90 3.2 9.7 0.00 0.00 0.00 56 987.3
20260906074859 20 100 1.6 4.8 0.00 0.00 0.00 56 987.3
20260906074358 20 100 1.6 6.4 0.00 0.00 0.00 57 987.4
20260906073858 20 100 3.2 9.7 0.00 0.00 0.00 57 987.3
20260906073354 20 102 3.2 9.7 0.00 0.00 0.00 57 987.3
20260906072855 20 107 4.8 12.9 0.00 0.00 0.00 57 987.2
20260906071851 20 88 4.8 12.9 0.00 0.00 0.00 57 987.2
20260906071351 21 82 4.8 14.5 0.00 0.00 0.00 57 987.2
20260906070851 21 90 4.8 14.5 0.00 0.00 0.00 57 987.3
20260906065352 21 65 6.4 17.7 0.00 0.00 0.00 57 987.4
20260906064852 21 67 6.4 16.1 0.00 0.00 0.00 57 987.4
20260906064352 21 72 6.4 12.9 0.00 0.00 0.00 57 987.4
20260906063852 21 82 6.4 14.5 0.00 0.00 0.00 56 987.4
20260906062852 21 103 6.4 14.5 0.00 0.00 0.00 56 987.4
20260906062351 21 92 4.8 14.5 0.00 0.00 0.00 57 987.6
20260906061851 21 80 6.4 12.9 0.00 0.00 0.00 56 987.6
20260906061351 21 80 8.0 12.9 0.00 0.00 0.00 56 987.5
20260906060852 21 81 6.4 19.3 0.00 0.00 0.00 57 987.5
20260906060349 21 68 6.4 19.3 0.00 0.00 0.00 57 987.6
20260906055348 22 96 4.8 16.1 0.00 0.00 0.00 57 987.6
20260906054847 22 67 6.4 16.1 0.00 0.00 0.00 57 987.5
20260906054347 22 109 6.4 17.7 0.00 0.00 0.00 57 987.6
20260906053845 22 100 6.4 17.7 0.00 0.00 0.00 58 987.6
20260906053346 22 94 4.8 19.3 0.00 0.00 0.00 58 987.5
20260906052846 22 69 3.2 19.3 0.00 0.00 0.00 58 987.5
20260906052348 22 77 3.2 8.0 0.00 0.00 0.00 59 987.5
20260906051846 22 84 3.2 14.5 0.00 0.00 0.00 59 987.4
20260906051346 22 74 3.2 14.5 0.00 0.00 0.00 59 987.4
20260906050846 22 84 3.2 9.7 0.00 0.00 0.00 59 987.3
20260906050343 22 59 3.2 9.7 0.00 0.00 0.00 59 987.3
20260906045843 22 51 3.2 8.0 0.00 0.00 0.00 59 987.2
20260906045343 22 82 1.6 8.0 0.00 0.00 0.00 59 987.1
20260906044842 22 86 1.6 9.7 0.00 0.00 0.00 59 987.1
20260906044337 22 84 1.6 9.7 0.00 0.00 0.00 59 987.1
20260906043830 22 55 1.6 6.4 0.00 0.00 0.00 59 987.2
20260906043324 22 17 1.6 6.4 0.00 0.00 0.00 60 987.2
20260906042312 23 0 0.0 3.2 0.00 0.00 0.00 60 987.3
20260906041805 23 5 0.0 3.2 0.00 0.00 0.00 60 987.2
20260906040754 23 5 1.6 6.4 0.00 0.00 0.00 60 987.0
20260906040247 23 50 1.6 4.8 0.00 0.00 0.00 60 986.9
20260906035748 23 51 1.6 4.8 0.00 0.00 0.00 60 986.8
20260906035246 23 53 1.6 6.4 0.00 0.00 0.00 60 986.7
20260906034744 23 54 1.6 6.4 0.00 0.00 0.00 60 986.7
20260906034242 23 56 1.6 4.8 0.00 0.00 0.00 60 986.4
20260906033240 23 55 0.0 4.8 0.00 0.00 0.00 60 986.3
20260906032238 23 56 1.6 4.8 0.00 0.00 0.00 60 986.1
20260906031736 23 55 1.6 4.8 0.00 0.00 0.00 60 986.1
20260906031236 23 55 0.0 3.2 0.00 0.00 0.00 60 986.1
20260906030735 23 55 0.0 4.8 0.00 0.00 0.00 59 986.2
20260906025732 23 57 0.0 4.8 0.00 0.00 0.00 59 986.0
20260906025231 23 57 1.6 4.8 0.00 0.00 0.00 59 986.0
20260906024730 23 57 1.6 4.8 0.00 0.00 0.00 59 986.0
20260906024234 23 55 1.6 8.0 0.00 0.00 0.00 59 986.0
20260906023730 24 55 3.2 8.0 0.00 0.00 0.00 59 985.9
20260906023230 24 85 3.2 9.7 0.00 0.00 0.00 59 985.7
20260906022729 24 89 1.6 9.7 0.00 0.00 0.00 59 985.8
20260906022225 24 53 1.6 8.0 0.00 0.00 0.00 59 985.7
20260906021720 24 59 3.2 8.0 0.00 0.00 0.00 59 985.7
20260906021213 24 84 3.2 6.4 0.00 0.00 0.00 59 985.5
20260906020707 24 90 3.2 6.4 0.00 0.00 0.00 59 985.3
20260906020206 24 93 3.2 11.3 0.00 0.00 0.00 59 985.3
20260906015205 24 74 3.2 11.3 0.00 0.00 0.00 58 985.1
20260906014706 24 86 3.2 11.3 0.00 0.00 0.00 58 985.1
20260906014206 24 90 3.2 9.7 0.00 0.00 0.00 58 985.1
20260906013706 24 95 3.2 11.3 0.00 0.00 0.00 58 985.0
20260906012206 24 85 4.8 14.5 0.00 0.00 0.00 58 984.9
20260906011706 25 76 3.2 9.7 0.00 0.00 0.00 58 985.0
20260906011205 25 112 3.2 8.0 0.00 0.00 0.00 58 984.8
20260906010703 25 104 1.6 8.0 0.00 0.00 0.00 58 984.7
20260906010203 25 86 3.2 12.9 0.00 0.00 0.00 58 984.6
20260906005703 25 91 3.2 12.9 0.00 0.00 0.00 58 984.6
20260906005203 25 111 3.2 9.7 0.00 0.00 0.00 58 984.5
20260906004704 25 90 1.6 9.7 0.00 0.00 0.00 58 984.5
20260906004202 25 88 0.0 4.8 0.00 0.00 0.00 58 984.5
20260906003701 25 55 0.0 4.8 0.00 0.00 0.00 57 984.6
20260906003202 25 69 0.0 3.2 0.00 0.00 0.00 57 984.6
20260906002701 25 69 1.6 4.8 0.00 0.00 0.00 57 984.6
20260906002201 25 69 0.0 4.8 0.00 0.00 0.00 57 984.7
20260906001701 25 64 0.0 4.8 0.00 0.00 0.00 57 984.7
20260906001202 25 65 3.2 8.0 0.00 0.00 0.00 56 984.7
20260906000701 25 64 3.2 14.5 0.00 0.00 0.00 56 984.8
20260906000204 25 62 4.8 14.5 0.00 0.00 0.00 56 984.9
20260905235702 25 87 4.8 11.3 0.00 0.00 0.00 55 985.0
20260905235202 25 84 4.8 11.3 0.00 0.00 0.00 55 985.0
20260905234702 25 76 3.2 9.7 0.00 0.00 0.00 55 985.0
20260905234201 25 30 3.2 9.7 0.00 0.00 0.00 55 985.0
20260905233702 25 67 3.2 9.7 0.00 0.00 0.00 55 984.8
20260905233202 25 39 4.8 12.9 0.00 0.00 0.00 55 984.9
20260905232702 25 81 4.8 14.5 0.00 0.00 0.00 55 985.0
20260905232202 26 49 6.4 17.7 0.00 0.00 0.00 54 985.1
20260905231701 26 74 6.4 17.7 0.00 0.00 0.00 54 985.1
20260905231201 26 76 6.4 17.7 0.00 0.03 0.00 54 985.0
20260905230701 26 65 6.4 17.7 0.00 0.03 0.00 54 985.0
20260905230201 26 69 6.4 17.7 0.00 0.03 0.00 54 984.9
20260905225201 26 49 4.8 17.7 0.00 0.03 0.00 54 985.0
20260905224659 26 110 6.4 17.7 0.00 0.03 0.00 54 985.0
20260905224159 26 65 6.4 17.7 0.00 0.03 0.00 54 985.0
20260905222659 27 47 8.0 17.7 0.00 0.03 0.00 52 985.0
20260905222152 28 90 6.4 17.7 0.00 0.03 0.00 51 985.0
20260905221645 28 82 6.4 16.1 0.00 0.03 0.00 51 984.9
20260905221139 28 14 6.4 17.7 0.00 0.03 0.00 51 984.8
20260905220633 28 25 8.0 17.7 0.00 0.03 0.00 51 984.8
20260905220127 27 61 4.8 16.1 0.00 0.03 0.00 52 984.8
20260905214609 27 55 6.4 14.5 0.00 0.03 0.00 52 984.9
20260905214104 27 47 4.8 14.5 0.00 0.03 0.00 53 984.9
20260905213554 27 41 4.8 14.5 0.00 0.03 0.00 52 984.9
20260905213047 27 57 4.8 14.5 0.00 0.03 0.00 51 984.8
20260905212541 27 5 4.8 14.5 0.00 0.03 0.00 53 984.8
20260905212034 27 55 6.4 14.5 0.00 0.03 0.00 53 984.7
20260905211527 28 52 6.4 14.5 0.00 0.03 0.00 52 984.6
20260905211021 28 59 4.8 14.5 0.00 0.03 0.00 52 984.7
20260905210516 28 350 4.8 9.7 0.00 0.03 0.00 53 984.7
20260905210009 27 351 4.8 9.7 0.00 0.03 0.00 54 984.8
20260905205504 27 298 4.8 14.5 0.00 0.03 0.00 54 984.9
20260905204957 27 63 6.4 14.5 0.00 0.03 0.00 53 984.8
20260905204451 28 78 4.8 14.5 0.00 0.03 0.00 53 984.7
20260905203439 27 52 4.8 12.9 0.00 0.03 0.00 54 984.8
20260905202933 27 67 4.8 12.9 0.00 0.03 0.00 55 984.8
20260905202428 27 79 4.8 11.3 0.00 0.03 0.00 55 984.7
20260905201922 27 16 4.8 12.9 0.00 0.03 0.00 55 984.6
20260905200910 27 51 4.8 14.5 0.00 0.03 0.00 54 985.0
20260905200403 27 67 4.8 14.5 0.00 0.03 0.00 53 985.0
20260905195858 28 74 4.8 14.5 0.00 0.03 0.00 53 985.0
20260905195352 28 59 3.2 8.0 0.00 0.03 0.00 52 985.0
20260905194846 27 316 4.8 12.9 0.00 0.03 0.00 53 985.1
20260905194340 27 323 4.8 12.9 0.00 0.03 0.00 53 985.0
20260905193833 27 5 4.8 12.9 0.00 0.03 0.00 52 985.1
20260905193328 26 355 4.8 12.9 0.00 0.03 0.00 53 985.1
20260905192822 26 40 4.8 14.5 0.00 0.03 0.00 54 985.2
20260905192316 26 355 6.4 16.1 0.00 0.03 0.00 54 985.2
20260905191810 26 67 4.8 16.1 0.00 0.03 0.00 54 985.2
20260905191304 26 19 3.2 11.3 0.00 0.03 0.00 56 985.2
20260905190756 26 63 4.8 12.9 0.00 0.03 0.00 55 985.3
20260905190252 26 67 4.8 12.9 0.00 0.03 0.00 55 985.2
20260905185745 25 76 6.4 14.5 0.00 0.03 0.00 55 985.4
20260905185239 26 31 4.8 14.5 0.00 0.03 0.00 55 985.4
20260905184734 26 49 3.2 14.5 0.00 0.03 0.00 55 985.4
20260905184229 26 85 4.8 11.3 0.00 0.03 0.00 55 985.5
20260905183722 26 40 4.8 12.9 0.00 0.03 0.00 55 985.4
20260905183219 26 22 4.8 12.9 0.00 0.03 0.00 55 985.3
20260905181657 26 61 6.4 16.1 0.00 0.03 0.00 55 985.2
20260905181152 26 12 6.4 16.1 0.00 0.03 0.00 55 985.2
20260905180646 26 67 6.4 14.5 0.00 0.03 0.00 55 985.1
20260905180140 26 48 6.4 14.5 0.00 0.03 0.00 55 985.1
20260905175634 26 19 4.8 14.5 0.00 0.03 0.00 55 985.1
20260905175127 26 38 4.8 11.3 0.00 0.03 0.00 55 985.2
20260905174621 26 46 4.8 14.5 0.00 0.03 0.00 55 985.3
20260905173609 26 94 4.8 12.9 0.00 0.03 0.00 55 985.4
20260905172558 26 71 6.4 14.5 0.00 0.03 0.00 55 985.3
20260905172051 26 66 6.4 12.9 0.00 0.03 0.00 54 985.4
20260905171546 26 74 4.8 12.9 0.00 0.03 0.00 54 985.4
20260905171040 26 68 3.2 9.7 0.00 0.03 0.00 54 985.5
20260905170533 26 59 4.8 12.9 0.00 0.03 0.00 54 985.7
20260905170028 26 64 4.8 12.9 0.00 0.03 0.00 54 985.7
20260905165015 26 51 3.2 9.7 0.00 0.03 0.00 53 985.7
20260905164509 26 51 3.2 9.7 0.00 0.03 0.00 54 985.7
20260905163000 26 84 4.8 17.7 0.00 0.03 0.00 54 985.6
20260905162459 26 31 4.8 14.5 0.00 0.03 0.00 53 985.9
20260905161959 26 73 4.8 14.5 0.00 0.03 0.00 53 986.0
20260905161459 26 123 4.8 16.1 0.00 0.03 0.00 53 985.8
20260905160957 26 67 4.8 16.1 0.00 0.03 0.00 52 985.9
20260905160457 26 45 4.8 14.5 0.00 0.03 0.00 52 985.8
20260905155957 26 56 6.4 14.5 0.00 0.03 0.00 52 985.6
20260905155456 26 355 8.0 14.5 0.00 0.03 0.00 53 985.6
20260905154955 26 73 8.0 14.5 0.00 0.03 0.00 53 985.6
20260905154454 26 63 4.8 14.5 0.00 0.03 0.00 52 985.6
20260905153955 26 326 4.8 16.1 0.00 0.03 0.00 53 985.5
20260905153453 26 336 6.4 16.1 0.00 0.03 0.00 53 985.5
20260905152450 26 27 4.8 14.5 0.00 0.03 0.00 53 985.4
20260905151951 26 339 4.8 14.5 0.00 0.03 0.00 52 985.4
20260905150949 25 58 6.4 11.3 0.00 0.03 0.00 52 985.2
20260905150449 25 19 6.4 14.5 0.00 0.03 0.00 52 985.2
20260905145950 25 32 6.4 14.5 0.00 0.03 0.00 51 985.1
20260905145448 25 83 4.8 12.9 0.00 0.03 0.00 51 985.0
20260905144949 25 28 4.8 9.7 0.00 0.03 0.00 51 985.0
20260905144448 25 68 4.8 11.3 0.00 0.03 0.00 51 984.8
20260905143949 25 5 3.2 11.3 0.00 0.03 0.00 51 984.9
20260905143449 25 55 3.2 9.7 0.00 0.03 0.00 50 984.8
20260905142950 24 344 4.8 12.9 0.00 0.03 0.00 50 984.8
20260905142445 24 327 3.2 12.9 0.00 0.03 0.00 49 984.9
20260905141945 24 340 4.8 9.7 0.00 0.03 0.00 49 984.8
20260905141445 24 344 4.8 12.9 0.00 0.03 0.00 49 984.6
20260905140944 23 347 3.2 12.9 0.00 0.03 0.00 50 984.7
20260905140444 23 347 1.6 8.0 0.00 0.03 0.00 55 984.7
20260905135944 23 351 1.6 8.0 0.00 0.03 0.00 57 984.6
20260905135444 23 351 1.6 6.4 0.00 0.03 0.00 57 984.6
20260905134944 23 355 1.6 4.8 0.00 0.03 0.00 58 984.4
20260905133945 22 355 1.6 4.8 0.00 0.03 0.00 58 984.3
20260905133445 22 355 1.6 3.2 0.00 0.03 0.00 58 984.2
20260905132944 22 355 1.6 6.4 0.00 0.03 0.00 58 984.1
20260905132444 22 355 3.2 8.0 0.00 0.03 0.00 58 984.1
20260905131944 22 355 1.6 8.0 0.00 0.03 0.00 58 984.0
20260905131445 22 348 1.6 4.8 0.00 0.03 0.00 58 984.1
20260905130445 22 348 3.2 8.0 0.00 0.03 0.00 57 984.1
20260905125945 22 344 3.2 6.4 0.00 0.03 0.00 57 984.1
20260905125444 22 342 3.2 6.4 0.00 0.03 0.00 57 984.0
20260905124937 22 340 1.6 6.4 0.00 0.03 0.00 57 984.0
20260905124432 22 337 1.6 6.4 0.00 0.03 0.00 58 983.9
20260905123926 22 336 0.0 0.0 0.00 0.03 0.00 58 983.9
20260905123420 22 336 0.0 0.0 0.00 0.03 0.00 58 983.7
20260905122408 22 336 0.0 0.0 0.00 0.03 0.00 58 983.5
20260905121901 22 336 0.0 0.0 0.00 0.03 0.00 58 983.5
20260905121355 22 335 0.0 0.0 0.00 0.03 0.00 58 983.4
20260905120344 22 335 0.0 1.6 0.00 0.03 0.00 58 983.5
20260905115837 21 335 0.0 4.8 0.00 0.03 0.00 58 983.5
20260905114826 21 335 1.6 3.2 0.00 0.03 0.00 57 983.4
20260905114320 22 335 1.6 4.8 0.00 0.03 0.00 57 983.5
20260905113813 22 335 1.6 4.8 0.00 0.03 0.00 57 983.4
20260905113307 22 335 1.6 3.2 0.00 0.03 0.00 57 983.2
20260905112802 22 335 1.6 3.2 0.00 0.03 0.00 57 983.0
20260905112257 22 335 1.6 4.8 0.00 0.03 0.00 56 983.0
20260905111750 22 335 1.6 4.8 0.00 0.03 0.00 56 982.7
20260905111244 22 335 1.6 4.8 0.00 0.03 0.00 56 982.6
20260905110738 22 335 3.2 4.8 0.00 0.03 0.00 55 982.6
20260905110231 22 335 3.2 6.4 0.00 0.03 0.00 55 982.5
20260905105726 22 334 1.6 6.4 0.00 0.03 0.00 55 982.6
20260905105220 22 334 1.6 4.8 0.00 0.03 0.00 54 982.6
20260905104714 22 334 1.6 4.8 0.00 0.03 0.00 54 982.5
20260905103702 22 334 1.6 4.8 0.00 0.03 0.00 54 982.3
20260905103157 22 334 3.2 6.4 0.00 0.03 0.00 53 982.3
20260905102650 22 334 3.2 6.4 0.00 0.03 0.00 53 982.3
20260905102143 22 333 1.6 4.8 0.00 0.03 0.00 53 982.3
20260905101637 22 333 1.6 4.8 0.00 0.03 0.00 53 982.4